Regional Weather Roundup
Issued by NWS Raleigh/Durham, NC

Home | Current Version | Previous Version | Text Only | Print | Product List | Glossary On
Versions: 1 2 3 4 5 6 7 8 9 10 11 12 13 14 15 16 17 18 19 20 21 22 23 24 25 26 27
000
ASUS42 KRAH 260410
RWRRAH
NORTH CAROLINA WEATHER ROUNDUP
NATIONAL WEATHER SERVICE RALEIGH NC
1200 AM EDT MON JUN 26 2017

NOTE: "FAIR" INDICATES FEW OR NO CLOUDS BELOW 12,000 FEET WITH NO
SIGNIFICANT WEATHER AND/OR OBSTRUCTIONS TO VISIBILITY.

NCZ001-053-055-056-065-067-260500-
WESTERN NORTH CAROLINA

CITY           SKY/WX    TMP DP  RH WIND       PRES   REMARKS
ASHEVILLE      CLEAR     58  54  86 CALM      30.23R
JEFFERSON      CLEAR     59  46  61 NW5       30.24S
HICKORY        CLEAR     65  63  93 CALM      30.16S
RUTHERFORDTON  NOT AVBL
MOUNT AIRY     CLEAR     62  54  76 CALM      30.19S
BOONE          NOT AVBL
$$

NCZ021-022-025-041-071-084-088-260500-
CENTRAL NORTH CAROLINA

CITY           SKY/WX    TMP DP  RH WIND       PRES   REMARKS
CHARLOTTE      PTCLDY    68  59  73 N5        30.14S
GREENSBORO     PTCLDY    67  60  78 NW6       30.14R
WINSTON-SALEM  CLEAR     68  56  65 CALM      30.16R
RALEIGH-DURHAM MOCLDY    71  65  81 CALM      30.11R
FORT BRAGG     CLOUDY    75  66  74 NW6       30.08S
FAYETTEVILLE   CLOUDY    80  67  64 N5        30.08R
BURLINGTON     CLEAR     67  64  90 W3        30.12R
LAURINBURG     CLOUDY    76  67  73 NE6       30.10R
$$

NCZ011-015-027-028-043-044-047-080-103-260500-
NORTHEASTERN NORTH CAROLINA

CITY           SKY/WX    TMP DP  RH WIND       PRES   REMARKS
ROCKY MT-WILSO MOCLDY    71  64  78 CALM      30.08S
GREENVILLE     MOCLDY    77  64  65 CALM      30.08S
WASHINGTON     PTCLDY   N/A N/A N/A NW3       30.06S
ELIZABETH CITY CLOUDY    75  66  73 NW9       30.04S
MANTEO         MOCLDY    78  72  80 CALM      30.03F
CAPE HATTERAS  MOCLDY    78  73  84 W6        30.03F
$$

NCZ078-087-090-091-093-098-101-260500-
SOUTHEASTERN NORTH CAROLINA

CITY           SKY/WX    TMP DP  RH WIND       PRES   REMARKS
LUMBERTON      CLOUDY    76  72  87 CALM      30.08R
GOLDSBORO      CLOUDY    77  66  69 N6        30.06R
KINSTON        CLOUDY    72  68  88 CALM      30.08R
KENANSVILLE    MOCLDY    72  70  94 CALM      30.08S
NEW BERN       PTCLDY    74  74 100 S3        30.07S
CHERRY POINT   CLOUDY    75  71  87 SW6       30.07R
BEAUFORT       CLOUDY    79  77  94 SW7       30.06R
JACKSONVILLE   MOCLDY    75  75 100 SW9       30.06S
WILMINGTON     PTCLDY    73  70  90 NW3       30.07S
$$





USA.gov is the U.S. government's official web portal to all federal, state and local government web resources and services.